Le nostre stazioni meteo in Italia

Pubblicità
Il mio iltempo24.it
Lampedusa, Italia (16490): Temperatura & dewpoint: 21.02.2017 23:00:00 - 27.02.2017 23:00:00 (CET)Lampedusa, Italia (16490): velocità del vento: 21.02.2017 23:00:00 - 27.02.2017 23:00:00 (CET)Lampedusa, Italia (16490): direzione del vento: 21.02.2017 23:00:00 - 27.02.2017 23:00:00 (CET)Lampedusa, Italia (16490): visibility: 21.02.2017 23:00:00 - 27.02.2017 23:00:00 (CET)
Data & Tempo tt [°C] td [°C] ff [km/h] ff [kn] dd vv [km]
27.02.2017 23:00:00 - - - - - -
27.02.2017 22:00:00 - - - - - -
27.02.2017 21:00:00 14,0 13,0 15 8 NNO 10
27.02.2017 20:00:00 14,0 13,0 16 9 N 10
27.02.2017 19:00:00 14,0 13,0 22 12 N 10
27.02.2017 18:00:00 15,0 13,0 29 16 N 10
27.02.2017 17:00:00 15,0 13,0 26 14 NNO 10
27.02.2017 16:00:00 15,0 13,0 31 17 NNO 10
27.02.2017 15:00:00 16,0 13,0 31 17 N 10
27.02.2017 14:00:00 16,0 13,0 34 18 N 10
27.02.2017 13:00:00 16,0 13,0 34 18 NNO 10
27.02.2017 12:00:00 16,0 13,0 39 21 NNO 10
27.02.2017 11:00:00 15,0 13,0 34 18 NNO 10
27.02.2017 10:00:00 15,0 13,0 28 15 NNO 10
27.02.2017 09:00:00 15,0 13,0 28 15 NNO 10
27.02.2017 08:00:00 14,0 13,0 28 15 NNO 10
27.02.2017 07:00:00 14,0 13,0 31 17 NNO 10
27.02.2017 06:00:00 14,0 13,0 29 16 NNO 10
27.02.2017 05:00:00 - - - - - -
27.02.2017 04:00:00 - - - - - -
27.02.2017 03:00:00 - - - - - -
27.02.2017 02:00:00 - - - - - -
27.02.2017 01:00:00 - - - - - -
27.02.2017 00:00:00 - - - - - -
26.02.2017 23:00:00 - - - - - -
26.02.2017 22:00:00 - - - - - -
26.02.2017 21:00:00 14,0 12,0 37 20 NNO 10
26.02.2017 20:00:00 14,0 12,0 24 13 NNO 10
26.02.2017 19:00:00 14,0 12,0 22 12 N 9
26.02.2017 18:00:00 14,0 12,0 16 9 N 10
26.02.2017 17:00:00 13,0 12,0 13 7 NO 10
26.02.2017 16:00:00 13,0 12,0 21 11 NNO 9
26.02.2017 15:00:00 14,0 12,0 21 11 N 10
26.02.2017 14:00:00 15,0 11,0 34 18 N 10
26.02.2017 13:00:00 14,0 11,0 28 15 N 10
26.02.2017 12:00:00 14,0 11,0 26 14 N 10
26.02.2017 11:00:00 14,0 11,0 29 16 N 10
26.02.2017 10:00:00 14,0 11,0 35 19 N 10
26.02.2017 09:00:00 14,0 10,0 29 16 N 10
26.02.2017 08:00:00 14,0 10,0 37 20 N 10
26.02.2017 07:00:00 14,0 10,0 29 16 N 10
26.02.2017 06:00:00 14,0 10,0 34 18 N 10
26.02.2017 05:00:00 - - - - - -
26.02.2017 04:00:00 - - - - - -
26.02.2017 03:00:00 - - - - - -
26.02.2017 02:00:00 - - - - - -
26.02.2017 01:00:00 - - - - - -
26.02.2017 00:00:00 - - - - - -
25.02.2017 23:00:00 - - - - - -
25.02.2017 22:00:00 - - - - - -
25.02.2017 21:00:00 14,0 10,0 37 20 N 10
25.02.2017 20:00:00 14,0 10,0 37 20 N 10
25.02.2017 19:00:00 14,0 10,0 37 20 N 10
25.02.2017 18:00:00 14,0 11,0 37 20 N 10
25.02.2017 17:00:00 15,0 11,0 35 19 N 10
25.02.2017 16:00:00 15,0 12,0 37 20 N 10
25.02.2017 15:00:00 16,0 12,0 37 20 NNO 10
25.02.2017 14:00:00 16,0 12,0 39 21 NNO 10
25.02.2017 13:00:00 16,0 12,0 41 22 NNO 10
25.02.2017 12:00:00 16,0 12,0 34 18 N 10
25.02.2017 11:00:00 16,0 12,0 35 19 NNO 10
25.02.2017 10:00:00 15,0 12,0 34 18 NNO 10
25.02.2017 09:00:00 15,0 13,0 26 14 NNO 10
25.02.2017 08:00:00 15,0 13,0 28 15 NNO 9
25.02.2017 07:00:00 15,0 13,0 28 15 NNO 9
25.02.2017 06:00:00 15,0 13,0 34 18 N 9
25.02.2017 05:00:00 - - - - - -
25.02.2017 04:00:00 - - - - - -
25.02.2017 03:00:00 - - - - - -
25.02.2017 02:00:00 - - - - - -
25.02.2017 01:00:00 - - - - - -
25.02.2017 00:00:00 - - - - - -
24.02.2017 23:00:00 - - - - - -
24.02.2017 22:00:00 - - - - - -
24.02.2017 21:00:00 17,0 13,0 26 14 SSE 7
24.02.2017 20:00:00 19,0 11,0 34 18 SE 7
24.02.2017 19:00:00 18,0 12,0 22 12 SSE 7
24.02.2017 18:00:00 17,0 13,0 28 15 SE 7
24.02.2017 17:00:00 17,0 14,0 26 14 SSE 8
24.02.2017 16:00:00 17,0 14,0 22 12 SSE 8
24.02.2017 15:00:00 17,0 14,0 26 14 SSE 10
24.02.2017 14:00:00 18,0 15,0 16 9 S 10
24.02.2017 13:00:00 18,0 15,0 21 11 S 10
24.02.2017 12:00:00 17,0 15,0 24 13 SSE 10
24.02.2017 11:00:00 17,0 15,0 28 15 SSE 10
24.02.2017 10:00:00 16,0 14,0 28 15 SSE 10
24.02.2017 09:00:00 16,0 14,0 28 15 SSE 10
24.02.2017 08:00:00 16,0 14,0 24 13 SSE 10
24.02.2017 07:00:00 15,0 14,0 21 11 SSE 10
24.02.2017 06:00:00 - - - - - -
24.02.2017 05:00:00 - - - - - -
24.02.2017 04:00:00 - - - - - -
24.02.2017 03:00:00 - - - - - -
24.02.2017 02:00:00 - - - - - -
24.02.2017 01:00:00 - - - - - -
24.02.2017 00:00:00 - - - - - -
23.02.2017 23:00:00 - - - - - -
23.02.2017 22:00:00 - - - - - -
23.02.2017 21:00:00 15,0 14,0 9 5 S 10
23.02.2017 20:00:00 15,0 14,0 11 6 SSE 10
23.02.2017 19:00:00 15,0 14,0 13 7 SSE 10
23.02.2017 18:00:00 15,0 13,0 13 7 SSE 10
23.02.2017 17:00:00 16,0 13,0 11 6 SSE 10
23.02.2017 16:00:00 16,0 13,0 11 6 S 10
23.02.2017 15:00:00 16,0 13,0 13 7 S 10
23.02.2017 14:00:00 16,0 13,0 13 7 S 10
23.02.2017 13:00:00 16,0 13,0 13 7 S 10
23.02.2017 12:00:00 16,0 13,0 13 7 S 10
23.02.2017 11:00:00 16,0 13,0 11 6 S 10
23.02.2017 10:00:00 15,0 13,0 9 5 S 10
23.02.2017 09:00:00 14,0 13,0 5 3 S 10
23.02.2017 08:00:00 11,0 10,0 8 4 S 10
23.02.2017 07:00:00 13,0 12,0 5 3 S 10
23.02.2017 06:00:00 11,0 10,0 5 3 S 9
23.02.2017 05:00:00 - - - - - -
23.02.2017 04:00:00 - - - - - -
23.02.2017 03:00:00 - - - - - -
23.02.2017 02:00:00 - - - - - -
23.02.2017 01:00:00 - - - - - -
23.02.2017 00:00:00 - - - - - -
22.02.2017 23:00:00 - - - - - -
22.02.2017 22:00:00 - - - - - -
22.02.2017 21:00:00 14,0 12,0 16 9 OSO 10
22.02.2017 20:00:00 14,0 12,0 15 8 OSO 10
22.02.2017 19:00:00 14,0 12,0 18 10 SO 10
22.02.2017 18:00:00 14,0 12,0 15 8 SO 10
22.02.2017 17:00:00 15,0 12,0 16 9 OSO 10
22.02.2017 16:00:00 16,0 12,0 16 9 SO 10
22.02.2017 15:00:00 16,0 11,0 18 10 SO 10
22.02.2017 14:00:00 16,0 11,0 21 11 SO 10
22.02.2017 13:00:00 16,0 11,0 22 12 SO 10
22.02.2017 12:00:00 16,0 11,0 15 8 SO 10
22.02.2017 11:00:00 - - - - - -
22.02.2017 10:00:00 15,0 11,0 15 8 SO 10
22.02.2017 09:00:00 14,0 11,0 11 6 SO 10
22.02.2017 08:00:00 13,0 10,0 15 8 SO 10
22.02.2017 07:00:00 12,0 10,0 9 5 OSO 10
22.02.2017 06:00:00 11,0 9,0 8 4 O 10
22.02.2017 05:00:00 - - - - - -
22.02.2017 04:00:00 - - - - - -
22.02.2017 03:00:00 - - - - - -
22.02.2017 02:00:00 - - - - - -
22.02.2017 01:00:00 - - - - - -
22.02.2017 00:00:00 - - - - - -
21.02.2017 23:00:00 - - - - - -

tt = Temperatura
td = dewpoint
ff = velocità del vento
dd = direzione del vento
vv = visibility

Stazioni seguenti

WeatherPro
AMSI
MeteoEarth